{"data":{"norad_id":63037,"intl_designator":"2025-034J","name":"STARLINK-32810","alt_names":[],"object_type":"PAYLOAD","status":"ACTIVE","operator":null,"country":"US","launch_date":"2025-02-18","launch_site_code":"AFETR","launch_vehicle":null,"mission":null,"orbit_class":"UNKNOWN","rcs_meters":null,"size_class":null,"mass_kg":null,"dimensions":null,"purposes":["comms"],"wikipedia_slug":null,"has_3d_model":false,"image_url":null,"decayed_at":null,"tle_current":{"epoch":"2026-09-21T18:08:25.006272Z","epoch_age_seconds":56901,"freshness":"FRESH","line1":"1 63037U 25034J   26264.75584498  .00013485  00000+0  40993-3 0  9991","line2":"2 63037  53.1590  63.9971 0001175 138.2464 221.8629 15.34366881 89159","mean_motion":15.34366881,"eccentricity":0.0001175,"inclination_deg":53.159,"raan_deg":63.9971,"arg_perigee_deg":138.2464,"mean_anomaly_deg":221.8629,"bstar":0.00040993,"rev_number":8915,"period_min":93.849783766286,"perigee_km":461.99786833049,"apogee_km":463.60548891996,"semimajor_km":6840.9386786252,"source":"CELESTRAK","updated_at":"2026-09-22T09:00:49.744912Z"}}}